SCP
0 0 0 0 0 0 0 0 0 0 0 0 0 0 0 0 0 0 0 0 0 0
0 0 0 0 0 0 0 0 0 0 0 0 0 0 0 0 0 0 0 0 0 0
0 0 0 0 0 0 0 0 0 0 0 0 0 0 0 0 0 0 0 0 0 0
0 0 0 0 0 0 0 0 0 0 0 0 0 0 0 0 0 0 0 0 0 0
0 0 0 0 0 0 0 0 0 0 0 0 0 0 0 0 0 0 0 0 0 0
0 0 0 0 0 0 0 0 0 0 0 0 0 0 0 0 0 0 0 0 0 0
0 0 0 0 0 0 0 0 0 0 0 0 0 0 0 0 0 0 0 0 0 0
0 0 0 0 0 0 0 0 0 0 0 0 0 0 0 0 0 0 0 0 0 0
0 0 0 0 0 0 0 0 0 0 0 0 0 0 0 0 0 0 0 0 0 0
0 0 0 0 0 0 0 0 0 0 0 0 0 0 0 0 0 0 0 0 0 0
0 0 0 0 0 0 0 0 0 0 0 0 0 0 0 0 0 0 0 0 0 0
0 0 0 0 0 0 0 0 0 0 0 0 0 0 0 0 0 0 0 0 0 0
0 0 0 0 0 0 0 0 0 0 0 0 0 0 0 0 0 0 0 0 0 0
0 0 0 0 0 0 0 0 0 0 0 0 0 0 0 0 0 0 0 0 0 0
Wind_Speed_500mb
11 11 14 17 18 20 20 22 24 29 26 25 26 25 19 22 29 31 26 26 31 32
12 14 16 16 17 18 19 22 25 26 27 29 29 28 28 30 31 32 31 32 34 37
15 15 17 19 18 20 20 23 26 27 29 31 33 34 34 35 35 40 39 41 45 46
21 17 20 25 26 26 26 25 29 29 30 31 32 31 36 39 41 43 44 44 48 52
29 24 24 27 28 30 32 30 33 33 34 35 36 36 39 45 47 50 53 56 57 60
32 28 26 29 28 30 34 34 35 37 39 39 41 43 44 50 55 57 60 63 63 67
31 30 27 29 30 33 35 38 39 40 43 44 45 46 50 55 64 67 66 61 62 65
26 28 30 30 34 36 39 42 44 48 49 49 49 49 49 54 57 61 59 58 58 54
26 25 28 31 32 38 42 45 50 54 58 58 60 64 62 60 48 50 49 48 49 47
25 27 30 36 41 44 44 45 49 53 53 49 45 39 40 38 45 45 44 50 55 57
30 31 35 39 40 42 44 42 35 29 29 32 31 32 33 39 37 37 41 51 51 54
22 29 38 41 38 34 33 29 32 35 30 29 19 25 33 34 35 44 52 53 53 57
28 33 32 32 29 25 25 23 21 27 23 19 23 30 35 42 51 56 55 53 54 52
27 25 25 22 17 14 20 26 26 24 21 23 28 36 45 51 51 53 57 57 58 54
Wind_Direction_500mb
293 307 303 290 286 296 293 305 314 307 309 318 313 329 323 315 317 323 332 323 320 324
322 330 337 326 313 317 308 309 308 316 300 304 309 299 299 301 304 304 307 307 308 311
313 330 339 343 336 323 322 313 308 313 305 301 300 301 299 298 299 295 295 295 295 297
287 312 323 335 335 331 324 321 314 315 311 304 300 298 295 296 299 295 296 295 295 294
279 293 311 326 331 331 326 321 317 314 312 312 308 303 298 299 298 295 295 295 293 292
280 296 310 324 326 326 325 324 321 319 319 319 319 316 314 309 306 303 302 299 297 296
286 293 301 316 318 321 325 323 328 327 325 325 323 323 323 318 315 316 306 302 300 298
301 290 301 306 314 318 319 324 328 324 325 324 321 316 312 321 324 321 315 318 312 306
349 314 306 316 319 318 321 323 320 320 316 314 311 315 316 320 326 327 329 332 335 317
333 329 327 317 314 316 315 312 311 313 316 312 314 331 337 327 324 330 338 343 338 333
319 319 316 312 310 311 313 316 326 330 326 321 328 333 332 335 334 334 335 335 334 333
319 320 317 314 320 327 329 334 330 326 338 348 338 337 340 343 338 333 333 330 326 328
315 319 322 322 330 338 339 354 6 358 3 5 3 356 353 346 339 331 327 326 328 331
324 330 330 329 336 5 12 6 12 11 17 10 7 356 346 344 343 343 337 333 331 329
Wind_Speed_850mb
11 11 14 17 18 20 20 22 24 29 26 25 26 25 19 22 29 31 26 26 31 32
12 14 16 16 17 18 19 22 25 26 27 29 29 28 28 30 31 32 31 32 34 37
15 15 17 19 18 20 20 23 26 27 29 31 33 34 34 35 35 40 39 41 45 46
21 17 20 25 26 26 26 25 29 29 30 31 32 31 36 39 41 43 44 44 48 52
29 24 24 27 28 30 32 30 33 33 34 35 36 36 39 45 47 50 53 56 57 60
32 28 26 29 28 30 34 34 35 37 39 39 41 43 44 50 55 57 60 63 63 67
31 30 27 29 30 33 35 38 39 40 43 44 45 46 50 55 64 67 66 61 62 65
26 28 30 30 34 36 39 42 44 48 49 49 49 49 49 54 57 61 59 58 58 54
26 25 28 31 32 38 42 45 50 54 58 58 60 64 62 60 48 50 49 48 49 47
25 27 30 36 41 44 44 45 49 53 53 49 45 39 40 38 45 45 44 50 55 57
30 31 35 39 40 42 44 42 35 29 29 32 31 32 33 39 37 37 41 51 51 54
22 29 38 41 38 34 33 29 32 35 30 29 19 25 33 34 35 44 52 53 53 57
28 33 32 32 29 25 25 23 21 27 23 19 23 30 35 42 51 56 55 53 54 52
27 25 25 22 17 14 20 26 26 24 21 23 28 36 45 51 51 53 57 57 58 54
Wind_Direction_850mb
293 307 303 290 286 296 293 305 314 307 309 318 313 329 323 315 317 323 332 323 320 324
322 330 337 326 313 317 308 309 308 316 300 304 309 299 299 301 304 304 307 307 308 311
313 330 339 343 336 323 322 313 308 313 305 301 300 301 299 298 299 295 295 295 295 297
287 312 323 335 335 331 324 321 314 315 311 304 300 298 295 296 299 295 296 295 295 294
279 293 311 326 331 331 326 321 317 314 312 312 308 303 298 299 298 295 295 295 293 292
280 296 310 324 326 326 325 324 321 319 319 319 319 316 314 309 306 303 302 299 297 296
286 293 301 316 318 321 325 323 328 327 325 325 323 323 323 318 315 316 306 302 300 298
301 290 301 306 314 318 319 324 328 324 325 324 321 316 312 321 324 321 315 318 312 306
349 314 306 316 319 318 321 323 320 320 316 314 311 315 316 320 326 327 329 332 335 317
333 329 327 317 314 316 315 312 311 313 316 312 314 331 337 327 324 330 338 343 338 333
319 319 316 312 310 311 313 316 326 330 326 321 328 333 332 335 334 334 335 335 334 333
319 320 317 314 320 327 329 334 330 326 338 348 338 337 340 343 338 333 333 330 326 328
315 319 322 322 330 338 339 354 6 358 3 5 3 356 353 346 339 331 327 326 328 331
324 330 330 329 336 5 12 6 12 11 17 10 7 356 346 344 343 343 337 333 331 329